Location: La Bilong�re
(48.1297°N, 1.4584°W)
Time: 08:54:25
(UTC+00:00)

Cosmos 2333 Rocket - Pass Details

Date: 03 March 2021
Orbit: 837 x 864 km, 70.8° (Epoch: 13 April)

Event Time Altitude Azimuth Distance (km) Brightness Sun altitude
Rises 18:47:32 0° 161° (SSE) 3,388 5.1 -9.8°
Reaches altitude 10° 18:50:34 10° 145° (SE) 2,462 4.3 -10.3°
Maximum altitude 18:54:33 20° 100° (E) 1,862 3.4 -11.0°
Drops below altitude 10° 18:58:34 10° 55° (NE) 2,488 4.2 -11.7°
Sets 19:01:38 0° 39° (NE) 3,435 5.0 -12.2°
